Regional Weather Roundup
Issued by NWS Jackson, KY

Home | Current Version | Previous Version | Text Only | Print | Product List | Glossary Off
Versions: 1 2 3 4 5 6 7 8 9 10 11 12 13 14 15 16 17 18 19 20 21 22 23 24 25 26 27

000
ASUS43 KJKL 210210
RWRJKL

EAST KENTUCKY HOURLY WEATHER ROUNDUP
NATIONAL WEATHER SERVICE JACKSON KY
1000 PM EDT WED SEP 20 2017

NOTE: "FAIR" INDICATES FEW OR NO CLOUDS BELOW 12,000 FEET WITH
NO SIGNIFICANT WEATHER AND/OR OBSTRUCTIONS TO VISIBILITY.

* THESE REPORTS ARE NOT UNDER NWS QUALITY CONTROL AND MAY NOT
  REPORT WEATHER SUCH AS PRECIPITATION AND FOG.

KYZ079-080-083-085-087-088-110-112-115-119-120-210300
...EASTERN KENTUCKY...

CITY           SKY/WX    TMP DP  RH WIND       PRES   REMARKS
JACKSON        CLEAR     73  65  75 CALM      30.07R
LONDON         CLEAR     72  67  84 CALM      30.06R
SOMERSET*      CLEAR     70  70 100 CALM      30.06S
MONTICELLO*    CLEAR     66  65  96 W9        30.07
WILLIAMSBURG*  PTCLDY    68  68 100 CALM      30.07R
MIDDLESBORO*   CLEAR     69  66  92 CALM      30.08R
HARLAN APT*    CLEAR     66  63  88 CALM      30.09S
PIKE CO APT*     N/A     74  64  72 CALM      30.08S
BIG SANDY APT* CLEAR     70  68  94 CALM      30.07R
MOREHEAD APT*  PTCLDY    72  68  88 S3        30.06S
$$

KYZ035-036-041-042-044-050-067-078-099-210300
...CENTRAL KENTUCKY...

CITY           SKY/WX    TMP DP  RH WIND       PRES   REMARKS
MT STERLING*   CLEAR     68  68 100 CALM      30.06S
FLEMING/MASON* CLEAR     71  66  85 CALM      30.05S
DANVILLE*      CLEAR     70  68  94 CALM      30.06S
LEXINGTON      CLEAR     72  67  84 CALM      30.05R
FRANKFORT      CLEAR     71  67  87 CALM      30.02R
LOUISVILLE     CLEAR     79  72  79 SE5       30.00R
LEBANON*         N/A     73  70  88 CALM      30.04R
GLASGOW*       CLEAR     71  69  95 CALM      30.03R
BOWLING GREEN  CLEAR     77  73  87 CALM      30.02R
$$

KYZ091>093-OHZ055-061-077-WVZ005-015-034-035-042-210300
...SOUTHERN OHIO/WEST VIRGINIA...

CITY           SKY/WX    TMP DP  RH WIND       PRES   REMARKS
COVINGTON      CLEAR     73  69  87 CALM      30.02S
COLUMBUS       MOCLDY    73  68  84 CALM      30.02R
DAYTON         CLEAR     75  66  73 S6        30.03S
WILMINGTON     CLEAR     70  68  93 CALM      30.03R
HUNTINGTON     CLEAR     71  67  87 CALM      30.04R
CHARLESTON     PTCLDY    69  65  86 CALM      30.06R
PINEVILLE*     CLEAR     65  63  92 MISG      30.15R
BECKLEY        CLEAR     63  62  97 CALM      30.13R FOG
BLUEFIELD      MOCLDY    67  59  75 CALM      30.15R
LOGAN CO APT*  CLOUDY    72  64  78 CALM      30.09R
$$

VAZ002-007-008-TNZ017-027-036-066-071-210300
...SOUTHWEST VIRGINIA/EAST TENNESSEE...

CITY           SKY/WX    TMP DP  RH WIND       PRES   REMARKS
WISE*          CLEAR     70  59  68 CALM      30.16R
JONESVILLE*      N/A     68  64  88 CALM      30.10R
ABINGDON*      CLEAR     67  63  85 CALM      30.11R
BRISTOL        CLEAR     66  63  90 CALM      30.08R
MORRISTOWN*    CLEAR     72  64  78 CALM      30.05S
SEVIERVILLE*   CLEAR     70  63  78 CALM      30.05R
KNOXVILLE      PTCLDY    74  68  81 CALM      30.04R
LAFOLLETTE*    CLEAR     68  66  94 CALM      30.10R
OAK RIDGE      CLEAR     72  68  87 CALM      30.06R
CROSSVILLE     CLEAR     67  65  93 CALM      30.10R
NASHVILLE      PTCLDY    78  69  73 SW5       30.02R
$$

...KEY TO REMARKS...
VSB - VISIBILITY IN MILES
WCI - WIND CHILL INDEX
HX  - HEAT INDEX

$$




USA.gov is the U.S. government's official web portal to all federal, state and local government web resources and services.